Погода в Веспреме

Венгрия     47°05′33″N   17°54′27″E
темп.,
°C
ветер,
м/с
пор.,
м/с
влажн.,
%
обл.,
%
осадки,
мм/ч
давл.,
гПа
погр.,
м
14 апреля, ср
ср1423:00+1ссз121896100 1.8 1020745
02:00+1ссз121896100 3.1 1019843
05:00+1ссз111892100 0.4 1019860
08:00+2ссз101591100 0.7 1021917
11:00+4ссз91384100 0.1 10211101
14:00+7ссз101368100 0.4 10211434
17:00+7ссз81268100 0.1 10211468
20:00+4ссз71375100 0.1 1022650
15 апреля, чт
чт1523:00+4сз7137182 0.0 1022584
02:00+3сз6137734 0.0 1022435
05:00+2сз6138052 0.0 1022358
08:00+4ссз7127377 0.0 1022768
11:00+7ссз796059 0.0 10221117
14:00+8сз894999 0.1 10222038
17:00+7сз795698 0.0 10211360
20:00+5ссз5967100 0.0 1022511
16 апреля, пт
пт1623:00+4сз51075100 0.0 1022554
02:00+3сз6127597 0.0 1022512
05:00+2ссз512785 0.0 1022410
08:00+3ссз610735 0.0 1023617
11:00+7сз676050 0.0 10231298
14:00+9ссз665579 0.1 10221528
17:00+9ссз5555100 0.0 10211382
20:00+5с34765 0.0 1021172
17 апреля, сб
сб1723:00+3ссз238261 0.0 102186
02:00+2с3591100 0.0 1020108
05:00+2ссв2392100 0.0 102081
08:00+5ссв3479100 0.0 1020230
11:00+9св4563100 0.0 1019967
14:00+11св4659100 0.0 10171392
17:00+10св4768100 0.1 1016665
20:00+9св3678100 0.2 1016268
18 апреля, вс
вс1823:00+8св51083100 0.1 1016596
02:00+8ссв4883100 0.1 1015397
05:00+7ссв61077100 0.0 1014448
08:00+7с4981100 0.1 1015419
11:00+8ссв6881100 0.3 10151165
14:00+7св4793100 3.1 1016998
17:00+7всв4795100 1.8 1016456
20:00+6всв2394100 2.9 1016209